Time+07,TemperatureF,Dew PointF,Humidity,Sea Level PressureIn,VisibilityMPH,Wind Direction,Wind SpeedMPH,Gust SpeedMPH,PrecipitationIn,Events,Conditions,WindDirDegrees,DateUTC
12:00 AM,67,65,89,29.87,,Calm,Calm,,,,,,2013-09-29 17:00:00
12:00 AM,68.0,64.4,88,29.89,-9999.0,Calm,Calm,-,N/A,,Unknown,0,2013-09-29 17:00:00
1:00 AM,67,65,89,29.86,,Calm,Calm,,,,,,2013-09-29 18:00:00
1:00 AM,66.2,64.4,94,29.89,-9999.0,Calm,Calm,-,N/A,,Scattered Clouds,0,2013-09-29 18:00:00
2:00 AM,66.2,64.4,94,29.89,-9999.0,Calm,Calm,-,N/A,,Unknown,0,2013-09-29 19:00:00
3:00 AM,67,65,90,29.84,,Calm,Calm,,,,,,2013-09-29 20:00:00
3:00 AM,66.2,64.4,94,29.86,-9999.0,Calm,Calm,-,N/A,,Scattered Clouds,0,2013-09-29 20:00:00
4:00 AM,66,64,93,29.85,,Calm,Calm,,,,,,2013-09-29 21:00:00
4:00 AM,66.2,64.4,94,29.89,-9999.0,Calm,Calm,-,N/A,,Unknown,0,2013-09-29 21:00:00
5:00 AM,66.2,64.4,94,29.89,-9999.0,SE,1.2,-,N/A,,Unknown,140,2013-09-29 22:00:00
6:00 AM,67,65,89,29.88,,East,3.5,,,,,100,2013-09-29 23:00:00
6:00 AM,66.2,64.4,94,29.92,-9999.0,East,3.5,-,N/A,,Unknown,100,2013-09-29 23:00:00
7:00 AM,74,66,70,29.89,,SE,6.9,,,,,130,2013-09-30 00:00:00
7:00 AM,73.4,66.2,78,29.92,-9999.0,SE,6.9,-,N/A,,Scattered Clouds,130,2013-09-30 00:00:00
8:00 AM,77.0,66.2,69,29.95,6.2,East,11.5,-,N/A,,Mostly Cloudy,100,2013-09-30 01:00:00
9:00 AM,78,70,70,29.92,,East,12.7,,,,,100,2013-09-30 02:00:00
9:00 AM,78.8,69.8,74,29.95,6.2,East,12.7,-,N/A,,Mostly Cloudy,100,2013-09-30 02:00:00
10:00 AM,78,73,80,29.91,,East,13.8,,,,,100,2013-09-30 03:00:00
10:00 AM,78.8,73.4,83,29.95,6.2,East,13.8,-,N/A,,Mostly Cloudy,100,2013-09-30 03:00:00
11:00 AM,78.8,73.4,83,29.92,6.2,East,12.7,-,N/A,,Mostly Cloudy,100,2013-09-30 04:00:00
12:00 PM,79,74,81,29.88,,ESE,13.8,,,,,110,2013-09-30 05:00:00
12:00 PM,78.8,73.4,83,29.92,6.2,ESE,13.8,-,N/A,,Scattered Clouds,110,2013-09-30 05:00:00
1:00 PM,77,73,83,29.85,,ESE,12.7,,,,,110,2013-09-30 06:00:00
1:00 PM,77.0,73.4,89,29.89,6.2,ESE,12.7,-,N/A,,Mostly Cloudy,110,2013-09-30 06:00:00
2:00 PM,77.0,71.6,83,29.86,6.2,East,11.5,-,N/A,,Mostly Cloudy,100,2013-09-30 07:00:00
3:00 PM,78,72,76,29.83,,East,11.5,,,,,100,2013-09-30 08:00:00
3:00 PM,78.8,71.6,78,29.86,6.2,East,11.5,-,N/A,,Mostly Cloudy,100,2013-09-30 08:00:00
4:00 PM,77,72,79,29.83,,ESE,12.7,,,,,110,2013-09-30 09:00:00
4:00 PM,77.0,71.6,83,29.86,6.2,ESE,12.7,-,N/A,,Mostly Cloudy,110,2013-09-30 09:00:00
5:00 PM,75.2,71.6,89,29.86,6.2,ESE,11.5,-,N/A,,Overcast,110,2013-09-30 10:00:00
5:31 PM,75.2,69.8,83,29.89,6.2,ESE,10.4,-,N/A,,Overcast,120,2013-09-30 10:31:00
6:00 PM,75,69,78,29.86,,East,12.7,,,,Overcast,100,2013-09-30 11:00:00
6:00 PM,75.2,69.8,83,29.89,6.2,East,12.7,-,N/A,,Mostly Cloudy,100,2013-09-30 11:00:00
6:10 PM,75.2,69.8,83,29.89,6.2,East,10.4,-,N/A,,Mostly Cloudy,100,2013-09-30 11:10:00
6:24 PM,75.2,69.8,83,29.89,6.2,East,10.4,-,N/A,,Mostly Cloudy,100,2013-09-30 11:24:00
7:00 PM,75,70,81,29.87,,East,11.5,,,,,100,2013-09-30 12:00:00
7:00 PM,75.2,69.8,83,29.92,-9999.0,East,11.5,-,N/A,,Mostly Cloudy,100,2013-09-30 12:00:00
8:00 PM,75.2,69.8,83,29.92,-9999.0,East,11.5,-,N/A,,Mostly Cloudy,100,2013-09-30 13:00:00
9:00 PM,75,70,79,29.90,,East,11.5,,,,Overcast,100,2013-09-30 14:00:00
9:00 PM,75.2,69.8,83,29.92,-9999.0,East,11.5,-,N/A,,Overcast,100,2013-09-30 14:00:00
10:00 PM,75,70,80,29.91,,ESE,10.4,,,,,110,2013-09-30 15:00:00
10:00 PM,75.2,69.8,83,29.95,-9999.0,ESE,10.4,-,N/A,,Overcast,110,2013-09-30 15:00:00
11:00 PM,75.2,69.8,83,29.95,-9999.0,East,11.5,-,N/A,,Overcast,100,2013-09-30 16:00:00